contact:dominique.lefevre@mio.osupytheas.fr, maurice.libes@osupytheas.fr, didier.mallarino@osupytheas.fr
Project:EMSO http://www.emso-fr.org/EMSO-France
Depth: 2436.0 m
Title:EMSO Ligure Ouest : Data MII capteur OXYGEN
DateTime,Latitude,Longitude,Optode-Type,Optode_Serial,Oxygen,Saturation_Oxygen,Temperature
DateTime,Latitude,Longitude,Optode-Type,Optode_Serial,µmol.l-1,%,degC
2017-09-29T12:44:11,42.805,6.029,4330,1995,201.635,61.661,13.287
2017-09-29T12:47:11,42.805,6.029,4330,1995,201.684,61.674,13.285
2017-09-29T12:50:11,42.805,6.029,4330,1995,201.700,61.680,13.286
2017-09-29T12:53:11,42.805,6.029,4330,1995,201.650,61.666,13.287
2017-09-29T12:56:11,42.805,6.029,4330,1995,201.608,61.653,13.287
2017-09-29T12:59:11,42.805,6.029,4330,1995,201.652,61.666,13.287
2017-09-29T13:02:11,42.805,6.029,4330,1995,201.604,61.651,13.286
2017-09-29T13:05:11,42.805,6.029,4330,1995,201.593,61.648,13.287
2017-09-29T13:08:11,42.805,6.029,4330,1995,201.571,61.642,13.287
2017-09-29T13:11:11,42.805,6.029,4330,1995,201.533,61.631,13.287
2017-09-29T13:14:11,42.805,6.029,4330,1995,201.449,61.604,13.287
2017-09-29T13:17:11,42.805,6.029,4330,1995,201.446,61.604,13.287
2017-09-29T13:20:11,42.805,6.029,4330,1995,201.439,61.601,13.287
2017-09-29T13:23:11,42.805,6.029,4330,1995,201.457,61.606,13.286
2017-09-29T13:26:11,42.805,6.029,4330,1995,201.422,61.596,13.287
2017-09-29T13:29:11,42.805,6.029,4330,1995,201.351,61.575,13.287
2017-09-29T13:32:11,42.805,6.029,4330,1995,201.380,61.583,13.287
2017-09-29T13:35:11,42.805,6.029,4330,1995,201.442,61.602,13.287
2017-09-29T13:38:11,42.805,6.029,4330,1995,201.415,61.595,13.288
2017-09-29T13:41:11,42.805,6.029,4330,1995,201.364,61.580,13.288
2017-09-29T13:44:11,42.805,6.029,4330,1995,201.409,61.592,13.287
2017-09-29T13:47:11,42.805,6.029,4330,1995,201.375,61.582,13.287
2017-09-29T13:50:11,42.805,6.029,4330,1995,201.362,61.577,13.287
2017-09-29T13:53:11,42.805,6.029,4330,1995,201.333,61.569,13.287
2017-09-29T13:56:11,42.805,6.029,4330,1995,201.295,61.557,13.287
2017-09-29T13:59:11,42.805,6.029,4330,1995,201.439,61.602,13.287
2017-09-29T14:02:11,42.805,6.029,4330,1995,201.405,61.590,13.286
2017-09-29T14:05:11,42.805,6.029,4330,1995,201.402,61.590,13.287
2017-09-29T14:08:11,42.805,6.029,4330,1995,201.383,61.584,13.287
2017-09-29T14:11:11,42.805,6.029,4330,1995,201.397,61.587,13.286
2017-09-29T14:14:11,42.805,6.029,4330,1995,201.305,61.560,13.287
2017-09-29T14:17:11,42.805,6.029,4330,1995,201.303,61.563,13.289
2017-09-29T14:20:11,42.805,6.029,4330,1995,201.217,61.536,13.289
2017-09-29T14:23:11,42.805,6.029,4330,1995,201.085,61.493,13.287
2017-09-29T14:26:11,42.805,6.029,4330,1995,201.252,61.544,13.287
2017-09-29T14:29:11,42.805,6.029,4330,1995,201.406,61.591,13.287
2017-09-29T14:32:11,42.805,6.029,4330,1995,201.334,61.569,13.287
2017-09-29T14:35:11,42.805,6.029,4330,1995,201.252,61.544,13.287
2017-09-29T14:38:11,42.805,6.029,4330,1995,201.270,61.551,13.288
2017-09-29T14:41:11,42.805,6.029,4330,1995,201.215,61.535,13.289
2017-09-29T14:44:11,42.805,6.029,4330,1995,201.294,61.558,13.288
2017-09-29T14:47:11,42.805,6.029,4330,1995,201.339,61.571,13.287
2017-09-29T14:50:11,42.805,6.029,4330,1995,201.361,61.578,13.287
2017-09-29T14:53:11,42.805,6.029,4330,1995,201.371,61.580,13.287
2017-09-29T14:56:11,42.805,6.029,4330,1995,201.403,61.591,13.287
2017-09-29T14:59:11,42.805,6.029,4330,1995,201.414,61.594,13.287
2017-09-29T15:02:11,42.805,6.029,4330,1995,201.344,61.572,13.287
2017-09-29T15:05:11,42.805,6.029,4330,1995,201.381,61.585,13.288
2017-09-29T15:08:11,42.805,6.029,4330,1995,201.319,61.566,13.288
2017-09-29T15:11:11,42.805,6.029,4330,1995,201.191,61.525,13.287
2017-09-29T15:14:11,42.805,6.029,4330,1995,201.162,61.517,13.287
2017-09-29T15:17:11,42.805,6.029,4330,1995,201.238,61.542,13.288
2017-09-29T15:20:11,42.805,6.029,4330,1995,201.258,61.547,13.288
2017-09-29T15:23:11,42.805,6.029,4330,1995,201.203,61.530,13.288
2017-09-29T15:26:11,42.805,6.029,4330,1995,201.094,61.497,13.287
2017-09-29T15:29:11,42.805,6.029,4330,1995,201.093,61.496,13.288
2017-09-29T15:32:11,42.805,6.029,4330,1995,201.077,61.490,13.287
2017-09-29T15:35:11,42.805,6.029,4330,1995,200.997,61.469,13.289
2017-09-29T15:38:11,42.805,6.029,4330,1995,201.023,61.476,13.288
2017-09-29T15:41:11,42.805,6.029,4330,1995,200.971,61.460,13.288
2017-09-29T15:44:11,42.805,6.029,4330,1995,200.913,61.442,13.288
2017-09-29T15:47:11,42.805,6.029,4330,1995,200.963,61.457,13.288
2017-09-29T15:50:11,42.805,6.029,4330,1995,201.104,61.500,13.288
2017-09-29T15:53:11,42.805,6.029,4330,1995,201.110,61.501,13.287
2017-09-29T15:56:11,42.805,6.029,4330,1995,201.039,61.479,13.287
2017-09-29T15:59:11,42.805,6.029,4330,1995,201.070,61.491,13.288
2017-09-29T16:02:11,42.805,6.029,4330,1995,201.100,61.498,13.287
2017-09-29T16:05:11,42.805,6.029,4330,1995,201.061,61.486,13.287
2017-09-29T16:08:11,42.805,6.029,4330,1995,201.227,61.537,13.287
2017-09-29T16:11:11,42.805,6.029,4330,1995,201.207,61.531,13.287
2017-09-29T16:14:11,42.805,6.029,4330,1995,201.150,61.514,13.288
2017-09-29T16:17:11,42.805,6.029,4330,1995,201.163,61.518,13.288
2017-09-29T16:20:11,42.805,6.029,4330,1995,201.129,61.508,13.288
2017-09-29T16:23:11,42.805,6.029,4330,1995,201.250,61.543,13.287
2017-09-29T16:26:11,42.805,6.029,4330,1995,201.248,61.544,13.288
2017-09-29T16:29:11,42.805,6.029,4330,1995,201.326,61.568,13.288
2017-09-29T16:32:11,42.805,6.029,4330,1995,201.355,61.576,13.287
2017-09-29T16:35:11,42.805,6.029,4330,1995,201.417,61.595,13.287
2017-09-29T16:38:11,42.805,6.029,4330,1995,201.295,61.559,13.288
2017-09-29T16:41:11,42.805,6.029,4330,1995,201.265,61.549,13.288
2017-09-29T16:44:11,42.805,6.029,4330,1995,201.349,61.573,13.287
2017-09-29T16:47:11,42.805,6.029,4330,1995,201.346,61.573,13.287
2017-09-29T16:50:11,42.805,6.029,4330,1995,201.346,61.573,13.287
2017-09-29T16:53:11,42.805,6.029,4330,1995,201.349,61.574,13.287
2017-09-29T16:56:10,42.805,6.029,4330,1995,201.332,61.569,13.287
2017-09-29T16:59:10,42.805,6.029,4330,1995,201.276,61.552,13.287
2017-09-29T17:02:10,42.805,6.029,4330,1995,201.279,61.553,13.287
2017-09-29T17:05:10,42.805,6.029,4330,1995,201.428,61.598,13.287
2017-09-29T17:08:10,42.805,6.029,4330,1995,201.459,61.607,13.287
2017-09-29T17:11:10,42.805,6.029,4330,1995,201.429,61.597,13.286
2017-09-29T17:14:10,42.805,6.029,4330,1995,201.354,61.575,13.287
2017-09-29T17:17:10,42.805,6.029,4330,1995,201.289,61.556,13.287
2017-09-29T17:20:10,42.805,6.029,4330,1995,201.418,61.595,13.287
2017-09-29T17:23:10,42.805,6.029,4330,1995,201.436,61.600,13.287
2017-09-29T17:26:10,42.805,6.029,4330,1995,201.450,61.604,13.286
2017-09-29T17:29:10,42.805,6.029,4330,1995,201.471,61.612,13.287
2017-09-29T17:32:10,42.805,6.029,4330,1995,201.434,61.599,13.286
2017-09-29T17:35:10,42.805,6.029,4330,1995,201.386,61.585,13.287
2017-09-29T17:38:10,42.805,6.029,4330,1995,201.471,61.610,13.286
2017-09-29T17:41:10,42.805,6.029,4330,1995,201.416,61.595,13.287
2017-09-29T17:44:10,42.805,6.029,4330,1995,201.429,61.598,13.287
2017-09-29T17:47:10,42.805,6.029,4330,1995,201.390,61.586,13.287
2017-09-29T17:50:10,42.805,6.029,4330,1995,201.418,61.595,13.287
2017-09-29T17:53:10,42.805,6.029,4330,1995,201.405,61.591,13.287
2017-09-29T17:56:10,42.805,6.029,4330,1995,201.428,61.597,13.286
2017-09-29T17:59:10,42.805,6.029,4330,1995,201.498,61.619,13.286
2017-09-29T18:02:10,42.805,6.029,4330,1995,201.632,61.659,13.286
2017-09-29T18:05:10,42.805,6.029,4330,1995,201.623,61.657,13.287
2017-09-29T18:08:10,42.805,6.029,4330,1995,201.636,61.660,13.286
2017-09-29T18:11:10,42.805,6.029,4330,1995,201.565,61.639,13.286
2017-09-29T18:14:10,42.805,6.029,4330,1995,201.565,61.639,13.287
2017-09-29T18:17:10,42.805,6.029,4330,1995,201.458,61.606,13.286
2017-09-29T18:20:10,42.805,6.029,4330,1995,201.462,61.608,13.286
2017-09-29T18:23:10,42.805,6.029,4330,1995,201.374,61.581,13.287
2017-09-29T18:26:10,42.805,6.029,4330,1995,201.319,61.564,13.287
2017-09-29T18:29:10,42.805,6.029,4330,1995,201.204,61.530,13.287
2017-09-29T18:32:10,42.805,6.029,4330,1995,201.227,61.536,13.287
2017-09-29T18:35:10,42.805,6.029,4330,1995,201.264,61.547,13.286
2017-09-29T18:38:10,42.805,6.029,4330,1995,201.264,61.548,13.287
2017-09-29T18:41:10,42.805,6.029,4330,1995,201.450,61.604,13.287
2017-09-29T18:44:10,42.805,6.029,4330,1995,201.399,61.588,13.286
2017-09-29T18:47:10,42.805,6.029,4330,1995,201.368,61.578,13.286
2017-09-29T18:50:10,42.805,6.029,4330,1995,201.357,61.576,13.287
2017-09-29T18:53:10,42.805,6.029,4330,1995,201.402,61.589,13.286
2017-09-29T18:56:10,42.805,6.029,4330,1995,201.341,61.570,13.286
2017-09-29T18:59:10,42.805,6.029,4330,1995,201.396,61.587,13.286
2017-09-29T19:02:10,42.805,6.029,4330,1995,201.421,61.594,13.286
2017-09-29T19:05:10,42.805,6.029,4330,1995,201.432,61.598,13.286
2017-09-29T19:08:10,42.805,6.029,4330,1995,201.507,61.621,13.286
2017-09-29T19:11:10,42.805,6.029,4330,1995,201.569,61.641,13.287
2017-09-29T19:14:10,42.805,6.029,4330,1995,201.545,61.633,13.286
2017-09-29T19:17:10,42.805,6.029,4330,1995,201.571,61.641,13.286
2017-09-29T19:20:10,42.805,6.029,4330,1995,201.626,61.658,13.286
2017-09-29T19:23:10,42.805,6.029,4330,1995,201.657,61.667,13.286
2017-09-29T19:26:10,42.805,6.029,4330,1995,201.574,61.641,13.286
2017-09-29T19:29:10,42.805,6.029,4330,1995,201.595,61.648,13.286
2017-09-29T19:32:10,42.805,6.029,4330,1995,201.558,61.637,13.286
2017-09-29T19:35:10,42.805,6.029,4330,1995,201.448,61.603,13.286
2017-09-29T19:38:10,42.805,6.029,4330,1995,201.433,61.599,13.286
2017-09-29T19:41:10,42.805,6.029,4330,1995,201.541,61.631,13.286
2017-09-29T19:44:10,42.805,6.029,4330,1995,201.464,61.608,13.286
2017-09-29T19:47:10,42.805,6.029,4330,1995,201.500,61.620,13.287
2017-09-29T19:50:10,42.805,6.029,4330,1995,201.483,61.614,13.286
2017-09-29T19:53:10,42.805,6.029,4330,1995,201.497,61.618,13.286
2017-09-29T19:56:10,42.805,6.029,4330,1995,201.589,61.647,13.286
2017-09-29T19:59:10,42.805,6.029,4330,1995,201.557,61.636,13.286
2017-09-29T20:02:10,42.805,6.029,4330,1995,201.433,61.598,13.286
2017-09-29T20:05:10,42.805,6.029,4330,1995,201.402,61.589,13.286
2017-09-29T20:08:10,42.805,6.029,4330,1995,201.317,61.563,13.286
2017-09-29T20:11:10,42.805,6.029,4330,1995,201.266,61.547,13.286
2017-09-29T20:14:10,42.805,6.029,4330,1995,201.222,61.533,13.286
2017-09-29T20:17:10,42.805,6.029,4330,1995,201.250,61.542,13.286
2017-09-29T20:20:10,42.805,6.029,4330,1995,201.210,61.530,13.286
2017-09-29T20:23:10,42.805,6.029,4330,1995,201.201,61.527,13.286
2017-09-29T20:26:10,42.805,6.029,4330,1995,201.139,61.508,13.286
2017-09-29T20:29:10,42.805,6.029,4330,1995,201.232,61.537,13.286
2017-09-29T20:32:10,42.805,6.029,4330,1995,201.099,61.496,13.286
2017-09-29T20:35:10,42.805,6.029,4330,1995,201.069,61.487,13.286
2017-09-29T20:38:10,42.805,6.029,4330,1995,201.157,61.514,13.286
2017-09-29T20:41:10,42.805,6.029,4330,1995,201.139,61.508,13.286
2017-09-29T20:44:10,42.805,6.029,4330,1995,201.053,61.483,13.286
2017-09-29T20:47:10,42.805,6.029,4330,1995,201.113,61.500,13.286
2017-09-29T20:50:10,42.805,6.029,4330,1995,201.084,61.491,13.286
2017-09-29T20:53:10,42.805,6.029,4330,1995,201.121,61.503,13.286
2017-09-29T20:56:10,42.805,6.029,4330,1995,201.192,61.524,13.286
2017-09-29T20:59:10,42.805,6.029,4330,1995,201.171,61.518,13.286
2017-09-29T21:02:10,42.805,6.029,4330,1995,201.153,61.512,13.286
2017-09-29T21:05:10,42.805,6.029,4330,1995,201.148,61.511,13.286
2017-09-29T21:08:10,42.805,6.029,4330,1995,201.143,61.509,13.286
2017-09-29T21:11:10,42.805,6.029,4330,1995,201.211,61.530,13.286
2017-09-29T21:14:10,42.805,6.029,4330,1995,201.175,61.519,13.286
2017-09-29T21:17:10,42.805,6.029,4330,1995,201.130,61.505,13.286
2017-09-29T21:20:10,42.805,6.029,4330,1995,201.132,61.506,13.286
2017-09-29T21:23:10,42.805,6.029,4330,1995,201.098,61.496,13.286
2017-09-29T21:26:10,42.805,6.029,4330,1995,201.151,61.512,13.286
2017-09-29T21:29:10,42.805,6.029,4330,1995,201.188,61.523,13.286
2017-09-29T21:32:10,42.805,6.029,4330,1995,201.214,61.531,13.285
2017-09-29T21:35:10,42.805,6.029,4330,1995,201.279,61.550,13.285
2017-09-29T21:38:10,42.805,6.029,4330,1995,201.231,61.536,13.286
2017-09-29T21:41:10,42.805,6.029,4330,1995,201.463,61.607,13.285
2017-09-29T21:44:10,42.805,6.029,4330,1995,201.501,61.618,13.285
2017-09-29T21:47:10,42.805,6.029,4330,1995,201.643,61.662,13.285
2017-09-29T21:50:10,42.805,6.029,4330,1995,201.476,61.611,13.286
2017-09-29T21:53:10,42.805,6.029,4330,1995,201.487,61.614,13.286
2017-09-29T21:56:10,42.805,6.029,4330,1995,201.372,61.579,13.286
2017-09-29T21:59:10,42.805,6.029,4330,1995,201.484,61.613,13.285
2017-09-29T22:02:10,42.805,6.029,4330,1995,201.592,61.646,13.285
2017-09-29T22:05:10,42.805,6.029,4330,1995,201.622,61.655,13.285
2017-09-29T22:08:10,42.805,6.029,4330,1995,201.583,61.643,13.285
2017-09-29T22:11:10,42.805,6.029,4330,1995,201.658,61.666,13.285
2017-09-29T22:14:10,42.805,6.029,4330,1995,201.605,61.650,13.285
2017-09-29T22:17:10,42.805,6.029,4330,1995,201.593,61.646,13.285
2017-09-29T22:20:10,42.805,6.029,4330,1995,201.623,61.655,13.285
2017-09-29T22:23:10,42.805,6.029,4330,1995,201.667,61.669,13.285
2017-09-29T22:26:10,42.805,6.029,4330,1995,201.616,61.653,13.285
2017-09-29T22:29:10,42.805,6.029,4330,1995,201.664,61.668,13.285
2017-09-29T22:32:10,42.805,6.029,4330,1995,201.614,61.652,13.285
2017-09-29T22:35:10,42.805,6.029,4330,1995,201.682,61.674,13.285
2017-09-29T22:38:10,42.805,6.029,4330,1995,201.697,61.678,13.285
2017-09-29T22:41:10,42.805,6.029,4330,1995,201.737,61.690,13.285
2017-09-29T22:44:10,42.805,6.029,4330,1995,201.743,61.692,13.285
2017-09-29T22:47:10,42.805,6.029,4330,1995,201.707,61.681,13.285
2017-09-29T22:50:10,42.805,6.029,4330,1995,201.690,61.676,13.285
2017-09-29T22:53:10,42.805,6.029,4330,1995,201.708,61.681,13.285
2017-09-29T22:56:10,42.805,6.029,4330,1995,201.771,61.700,13.285
2017-09-29T22:59:10,42.805,6.029,4330,1995,201.745,61.692,13.285
2017-09-29T23:02:10,42.805,6.029,4330,1995,201.780,61.703,13.285
2017-09-29T23:05:10,42.805,6.029,4330,1995,201.856,61.726,13.285
2017-09-29T23:08:10,42.805,6.029,4330,1995,201.906,61.742,13.285
2017-09-29T23:11:10,42.805,6.029,4330,1995,201.925,61.747,13.285
2017-09-29T23:14:10,42.805,6.029,4330,1995,201.852,61.725,13.285
2017-09-29T23:17:10,42.805,6.029,4330,1995,201.882,61.734,13.285
2017-09-29T23:20:10,42.805,6.029,4330,1995,201.845,61.723,13.285
2017-09-29T23:23:10,42.805,6.029,4330,1995,201.883,61.735,13.285
2017-09-29T23:26:10,42.805,6.029,4330,1995,201.866,61.729,13.285
2017-09-29T23:29:10,42.805,6.029,4330,1995,201.889,61.736,13.285
2017-09-29T23:32:10,42.805,6.029,4330,1995,201.878,61.733,13.285
2017-09-29T23:35:10,42.805,6.029,4330,1995,201.897,61.739,13.285
2017-09-29T23:38:10,42.805,6.029,4330,1995,201.862,61.728,13.285
2017-09-29T23:41:10,42.805,6.029,4330,1995,201.898,61.739,13.285
2017-09-29T23:44:10,42.805,6.029,4330,1995,201.883,61.735,13.285
2017-09-29T23:47:10,42.805,6.029,4330,1995,201.915,61.744,13.285
2017-09-29T23:50:10,42.805,6.029,4330,1995,201.942,61.753,13.285
2017-09-29T23:53:10,42.805,6.029,4330,1995,201.914,61.744,13.285
2017-09-29T23:56:10,42.805,6.029,4330,1995,201.866,61.729,13.285
2017-09-29T23:59:10,42.805,6.029,4330,1995,201.766,61.699,13.285
